Retour au catalogue

CZ-6A DEB

ActifSSO
NORAD 55198·DEBRIS·🇨🇳 China

Lancé Nov 11, 2022 depuis Taiyuan Satellite Launch Center

Loading…

Prochains Passages (prochaines 24 heures)

TLE

FraisSource: Space-Track

Époque: Sep 14, 2026, 10:27 UTC

1 55198U 22151VP  26257.43549131  .00004309  00000-0  84000-3 0  9992
2 55198  98.6129 319.0597 0090189  32.4646 328.2056 14.60979868197675

Suivez CZ-6A DEB en temps réel avec AllMySat

Download on the App Store